Starlink 31667

operational
NORAD ID: 59609 Int'l Des: 2024-080 Owner: SPXS Country: US Constellation: starlink
LEOCIRCULAR

关于 Starlink 31667

正在加载描述...

实时位置

正在加载3D地球...

即将过境

高度历史

Altitude vs Time

uPlot chart will show altitude changes over time

两行轨道根数

1 59609U 24080J 25354.41459236 .00001525 00000-0 64943-4 0 9999
2 59609 43.0031 121.7101 0001160 265.3359 94.7360 15.27573031 92459
Epoch: Dec 20, 2025 • Age: 12 hours

当前状态

高度 483.3 km
速度 7.63 km/s
星下点 -3.89°S, 112.8°W
发射日期 Apr 28, 2024
运行时间 1.6 years
类型 internet

技术详情

分类 Payload
质量 730.00 kg
干质量 700.00 kg
总质量 730.00 kg
长度 0.30 m
直径 4.10 m
跨度 29.00 m
形状 Box + pan
制造商 SPXS
平台类型 Starlink V2M
阶段状态 In Orbit
所有者/国家 SPXS/US

大型星座

Loading constellations...